{"data":{"norad_id":66074,"intl_designator":"2025-235S","name":"STARLINK-35321","alt_names":[],"object_type":"PAYLOAD","status":"ACTIVE","operator":null,"country":"US","launch_date":"2025-10-19","launch_site_code":"AFETR","launch_vehicle":null,"mission":null,"orbit_class":"UNKNOWN","rcs_meters":null,"size_class":null,"mass_kg":null,"dimensions":null,"purposes":["comms"],"wikipedia_slug":null,"has_3d_model":false,"image_url":null,"decayed_at":null,"tle_current":{"epoch":"2026-05-25T00:21:16.955712Z","epoch_age_seconds":73175,"freshness":"FRESH","line1":"1 66074U 25235S   26145.01477958  .00025405  00000+0  86672-3 0  9996","line2":"2 66074  53.1602 250.9986 0001202  84.9427 275.1711 15.30208186 34601","mean_motion":15.30208186,"eccentricity":0.0001202,"inclination_deg":53.1602,"raan_deg":250.9986,"arg_perigee_deg":84.9427,"mean_anomaly_deg":275.1711,"bstar":0.00086672,"rev_number":3460,"period_min":94.104842280591,"perigee_km":474.36685762698,"apogee_km":476.01439758866,"semimajor_km":6853.3276276078,"source":"CELESTRAK","updated_at":"2026-05-25T13:38:21.023582Z"}}}